Overview Statistics Trail Chart Weather Telemetry Raw packets
 

This is the latest recevied weather packets stored in our database for station/object HB9FHL-13. If no packets are shown the sender has not sent any weather packets the latest 10 day(s).

<< 24 25 26 27 28 29 30 >>
Time Temp. Humidity Pressure Rain* Wind** Luminosity Snow
1788528060 25.56° C - 1019.9 hPa 0 mm - - -
1788527759 26.67° C - 1019.1 hPa 0 mm - - -
1788527525 26.11° C - 1013.7 hPa 0 mm - - -
1788527463 26.11° C - 1013.7 hPa 0 mm - - -
1788527459 26.11° C - 1013.7 hPa 0 mm - - -
1788527216 27.22° C - 1019.1 hPa 0 mm - - -
1788527162 27.22° C - 1019.1 hPa 0 mm - - -
1788527158 27.22° C - 1019.1 hPa 0 mm - - -
1788526858 25.56° C - 1016.2 hPa 0 mm - - -
1788526561 26.67° C - 1023 hPa 0 mm - - -
1788526557 26.67° C - 1023 hPa 0 mm - - -
1788526262 26.67° C - 1015.4 hPa 0 mm - - -
1788526257 26.67° C - 1015.4 hPa 0 mm - - -
1788525956 26.67° C - 1017.3 hPa 0 mm - - -
1788525656 26.11° C - 1023 hPa 0 mm - - -
1788525360 26.11° C - 1018.9 hPa 0 mm - - -
1788525355 26.11° C - 1018.9 hPa 0 mm - - -
1788525059 26.11° C - 1022.1 hPa 0 mm - - -
1788525055 26.11° C - 1022.1 hPa 0 mm - - -
1788524755 25.56° C - 1020.4 hPa 0 mm - - -
1788524508 26.11° C - 1020.1 hPa 0 mm - - -
1788524459 26.11° C - 1020.1 hPa 0 mm - - -
1788524454 26.11° C - 1020.1 hPa 0 mm - - -
1788523853 26.11° C - 1019.3 hPa 0 mm - - -
1788523553 25° C - 1019.4 hPa 0 mm - - -

* Rain since midnight (hover to see other rain measurements)
** Current wind speed in m/s (hover to see current wind gust speed)